Evergreen, AL

3:35 PM CDT on October 19, 2017 (GMT -0500)
Middleton

Weather History for KGZH - February, 2013

Change the Weather History Date:

Tuesday, February 19, 2013

  Actual Average (KPRN) Record (KPRN)
Temperature  
Mean Temperature 56 °F -  
Max Temperature 64 °F 64 °F 82 °F (1956)
Min Temperature 46 °F 40 °F 19 °F (1958)
Degree Days  
Heating Degree Days 9    
Growing Degree Days 6 (Base 50)    
Moisture  
Dew Point 47 °F    
Average Humidity 70    
Maximum Humidity 93    
Minimum Humidity 24    
Precipitation  
Precipitation 0.48 in - - ()
Sea Level Pressure  
Sea Level Pressure 30.09 in    
Wind  
Wind Speed 7 mph (NW)    
Max Wind Speed 16 mph    
Max Gust Speed 28 mph    
Visibility 9 miles    
Events Rain    
Averages and records for this station are not official NWS values.
T = Trace of Precipitation, MM = Missing Value Source: NWS Daily Summary

Daily Weather History Graph

Daily Weather History Graph

Search for Another Location

Airport or City:

Trip Planner

Search our weather history database for the weather conditions in past years. The results will help you decide how hot, cold, wet, or windy it might be!

Date:

Astronomy

Feb. 19, 2013 Rise Set
Actual Time 6:25 AM CST 5:38 PM CST
Civil Twilight 6:00 AM CST 6:03 PM CST
Nautical Twilight 5:32 AM CST 6:31 PM CST
Astronomical Twilight 5:04 AM CST 7:00 PM CST
Moon 12:21 PM CST 1:45 AM CST
Length of Visible Light 12h 02m
Length of Day
11h 13m
Waxing Gibbous, 67% of the Moon is Illuminated
Feb 19
Waxing Gibbous
Feb 25
Full
Mar 4
Last Quarter
Mar 11
New
Mar 19
First Quarter

Hourly Weather History & Observations

Time (CST) Temp. Windchill Dew Point Humidity Pressure Visibility Wind Dir Wind Speed Gust Speed Precip Events Conditions
12:04 AM 51.8 °F - 42.8 °F 71% 30.07 in 10.0 mi SSE 6.9 mph - N/A   Mostly Cloudy
12:53 AM 53.1 °F - 44.1 °F 71% 30.06 in 10.0 mi SSE 10.4 mph - N/A   Overcast
1:12 AM 53.6 °F - 44.6 °F 72% 30.05 in 10.0 mi SE 6.9 mph - N/A   Overcast
1:38 AM 53.6 °F - 44.6 °F 72% 30.03 in 10.0 mi SE 8.1 mph - N/A   Overcast
1:53 AM 53.1 °F - 45.0 °F 74% 30.01 in 10.0 mi SSE 6.9 mph - N/A   Overcast
2:53 AM 55.0 °F - 48.0 °F 77% 29.99 in 10.0 mi SSE 8.1 mph - N/A   Overcast
3:53 AM 57.0 °F - 53.1 °F 87% 29.98 in 6.0 mi South 10.4 mph - 0.02 in Rain Rain
4:31 AM 59.0 °F - 55.4 °F 88% 29.99 in 2.5 mi Calm Calm - 0.19 in Rain Heavy Rain
4:53 AM 59.0 °F - 55.9 °F 90% 29.99 in 3.0 mi SSW 4.6 mph - 0.29 in Rain Light Rain
5:01 AM 59.0 °F - 55.4 °F 88% 29.99 in 10.0 mi SSW 4.6 mph - 0.00 in Rain Light Rain
5:34 AM 60.8 °F - 57.2 °F 88% 30.00 in 9.0 mi SSW 11.5 mph 27.6 mph 0.04 in Rain Rain
5:53 AM 61.0 °F - 57.9 °F 90% 30.01 in 10.0 mi SSW 8.1 mph - 0.05 in Rain Light Rain
6:11 AM 60.8 °F - 57.2 °F 88% 30.04 in 4.0 mi NW 5.8 mph - 0.03 in Rain Light Rain
6:17 AM 60.8 °F - 57.2 °F 88% 30.03 in 2.5 mi Calm Calm - 0.11 in Rain Heavy Rain
6:24 AM 60.8 °F - 57.2 °F 88% 30.03 in 2.5 mi Calm Calm - 0.12 in Rain Light Rain
6:31 AM 60.8 °F - 57.2 °F 88% 30.03 in 10.0 mi Calm Calm - 0.12 in Rain Light Rain
6:53 AM 59.0 °F - 57.0 °F 93% 30.05 in 8.0 mi Calm Calm - 0.12 in   Overcast
7:27 AM 60.8 °F - 57.2 °F 88% 30.07 in 10.0 mi Calm Calm - N/A   Overcast
7:53 AM 60.1 °F - 55.9 °F 86% 30.09 in 10.0 mi NW 6.9 mph - N/A   Overcast
8:08 AM 60.8 °F - 55.4 °F 82% 30.09 in 10.0 mi Variable 4.6 mph - N/A   Overcast
8:17 AM 60.8 °F - 55.4 °F 82% 30.09 in 10.0 mi NW 6.9 mph - N/A   Overcast
8:27 AM 60.8 °F - 55.4 °F 82% 30.10 in 10.0 mi NW 9.2 mph 17.3 mph N/A   Overcast
8:38 AM 60.8 °F - 53.6 °F 77% 30.11 in 10.0 mi NNW 8.1 mph - N/A   Overcast
8:53 AM 60.1 °F - 54.0 °F 80% 30.10 in 10.0 mi NNW 9.2 mph - N/A   Mostly Cloudy
9:48 AM 57.2 °F - 51.8 °F 82% 30.13 in 10.0 mi North 9.2 mph 17.3 mph N/A   Overcast
9:53 AM 57.9 °F - 51.1 °F 78% 30.14 in 10.0 mi NNW 12.7 mph 18.4 mph N/A   Overcast
10:27 AM 57.2 °F - 51.8 °F 82% 30.15 in 10.0 mi North 5.8 mph 16.1 mph N/A   Overcast
10:53 AM 59.0 °F - 50.0 °F 72% 30.16 in 10.0 mi NNW 11.5 mph 16.1 mph N/A   Overcast
12:01 PM 62.6 °F - 44.6 °F 52% 30.15 in 10.0 mi NNW 12.7 mph 19.6 mph N/A   Partly Cloudy
12:53 PM 64.0 °F - 39.0 °F 40% 30.14 in 10.0 mi North 16.1 mph 20.7 mph N/A   Clear
1:53 PM 64.9 °F - 33.1 °F 31% 30.13 in 10.0 mi NNW 11.5 mph 19.6 mph N/A   Clear
2:53 PM 64.9 °F - 27.0 °F 24% 30.13 in 10.0 mi North 12.7 mph 19.6 mph N/A   Clear
3:53 PM 64.0 °F - 28.0 °F 26% 30.14 in 10.0 mi NNW 15.0 mph 23.0 mph N/A   Clear
4:53 PM 62.1 °F - 30.0 °F 30% 30.15 in 10.0 mi NNW 8.1 mph - N/A   Clear
6:53 PM 53.1 °F - 26.1 °F 35% 30.19 in 10.0 mi NNW 6.9 mph - N/A   Clear
7:53 PM 48.9 °F - 27.0 °F 43% 30.19 in 10.0 mi North 5.8 mph - N/A   Clear
8:53 PM 48.0 °F - 27.0 °F 44% 30.19 in 10.0 mi North 5.8 mph - N/A   Clear
9:53 PM 48.0 °F - 25.0 °F 41% 30.21 in 10.0 mi North 8.1 mph - N/A   Clear
10:53 PM 46.0 °F 42.5 °F 26.1 °F 46% 30.22 in 10.0 mi North 6.9 mph - N/A   Clear